GW1347 Weather Reports


Display with metric or nautical units.
time (UTC)temp
F
wind
direction
speed
MPH
gust
MPH
rain 1hr
in
rain 24hr
in
rain mn
in
humidity
%
barometer
mb
20260904100513 77 203 0.0 0.0 0.00 0.00 0.00 88 1015.6
20260904094429 77 216 0.0 0.0 0.00 0.00 0.00 89 1015.6
20260904093412 78 216 0.0 0.0 0.00 0.00 0.00 89 1015.4
20260904092345 78 216 0.0 0.0 0.00 0.00 0.00 89 1015.3
20260904091346 78 216 0.0 0.0 0.00 0.00 0.00 89 1015.4
20260904090324 77 216 0.0 0.0 0.00 0.00 0.00 89 1015.5
20260904085301 78 234 0.0 0.0 0.00 0.00 0.00 89 1015.5
20260904081953 78 234 0.0 0.0 0.00 0.00 0.00 88 1015.5
20260904075812 79 234 0.0 0.0 0.00 0.00 0.00 87 1015.4
20260904074748 79 234 0.0 0.0 0.00 0.00 0.00 87 1015.5
20260904073721 79 234 0.0 0.0 0.00 0.00 0.00 87 1015.6
20260904072726 79 205 0.0 0.0 0.00 0.00 0.00 86 1015.5
20260904071713 79 236 0.0 0.0 0.00 0.00 0.00 87 1015.6
20260904070729 79 236 0.0 0.0 0.00 0.00 0.00 86 1015.6
20260904064512 79 236 0.0 0.0 0.00 0.00 0.00 86 1015.6
20260904063511 79 236 0.0 1.0 0.00 0.00 0.00 87 1015.6
20260904062525 79 233 0.0 0.0 0.00 0.00 0.00 85 1015.7
20260904061500 79 225 0.0 0.0 0.00 0.00 0.00 85 1015.7
20260904060516 79 225 0.0 0.0 0.00 0.00 0.00 85 1015.6
20260904055450 80 225 0.0 0.0 0.00 0.00 0.00 85 1015.7
20260904054418 80 225 0.0 0.0 0.00 0.00 0.00 83 1015.7
20260904053419 81 225 0.0 0.0 0.00 0.00 0.00 83 1015.7
20260904052359 81 225 0.0 0.0 0.00 0.00 0.00 83 1015.8
20260904051347 81 359 0.0 0.0 0.00 0.00 0.00 84 1015.7
20260904050340 81 359 0.0 0.0 0.00 0.00 0.00 84 1015.7
20260904045400 81 359 0.0 0.0 0.00 0.00 0.00 83 1015.8
20260904043219 82 359 0.0 0.0 0.00 0.00 0.00 81 1015.6
20260904042213 83 359 0.0 0.0 0.00 0.00 0.00 80 1015.6
20260904041147 82 359 0.0 0.0 0.00 0.00 0.00 81 1015.6
20260904040135 83 359 0.0 0.0 0.00 0.00 0.00 79 1015.6
20260904035139 83 359 0.0 0.0 0.00 0.00 0.00 79 1015.5
20260904034146 83 358 0.0 0.0 0.00 0.00 0.00 78 1015.6
20260904033137 83 5 0.0 0.0 0.00 0.00 0.00 79 1015.5
20260904032150 83 5 0.0 0.0 0.00 0.00 0.00 77 1015.5
20260904031149 83 5 0.0 0.0 0.00 0.00 0.00 77 1015.5
20260904030158 84 5 0.0 0.0 0.00 0.00 0.00 77 1015.6
20260904024017 86 5 0.0 0.0 0.00 0.00 0.00 74 1015.7
20260904023038 86 11 0.0 0.0 0.00 0.00 0.00 72 1015.6
20260904022014 86 133 0.0 0.0 0.00 0.00 0.00 70 1015.7
20260904020957 86 146 0.0 1.0 0.00 0.00 0.00 69 1015.7
20260904015928 86 155 0.0 3.0 0.00 0.00 0.00 69 1015.8
20260904014937 87 225 0.0 0.0 0.00 0.00 0.00 70 1015.8
20260904013934 88 225 0.0 0.0 0.00 0.00 0.00 68 1015.7
20260904012937 88 225 0.0 0.0 0.00 0.00 0.00 67 1015.7
20260904011949 88 173 0.0 2.0 0.00 0.00 0.00 66 1015.5
20260904010950 89 231 0.0 1.0 0.00 0.00 0.00 66 1015.3
20260904010013 90 5 0.0 0.0 0.00 0.00 0.00 66 1015.4
20260904003920 90 167 0.0 0.0 0.00 0.00 0.00 62 1015.1
20260904002943 90 233 0.0 0.0 0.00 0.00 0.00 63 1014.9
20260904001935 91 225 0.0 1.0 0.00 0.00 0.00 61 1014.9
20260904000954 92 244 0.0 0.0 0.00 0.00 0.00 60 1014.8
20260903234802 93 225 0.0 2.0 0.00 0.00 0.00 56 1014.6
20260903233751 95 241 1.0 0.0 0.00 0.00 0.00 54 1014.5
20260903232748 95 241 1.0 3.0 0.00 0.00 0.00 52 1014.5
20260903231801 96 313 0.0 0.0 0.00 0.00 0.00 53 1014.6
20260903225620 95 244 2.0 5.0 0.00 0.00 0.00 53 1014.5
20260903224624 96 247 1.0 9.0 0.00 0.00 0.00 50 1014.5
20260903223551 96 255 3.0 9.0 0.00 0.00 0.00 50 1014.5
20260903222518 97 192 2.0 6.0 0.00 0.00 0.00 48 1014.5
20260903221445 97 238 2.0 7.0 0.00 0.00 0.00 48 1014.5
20260903220436 96 229 4.0 8.0 0.00 0.00 0.00 50 1014.4
20260903214231 97 242 3.0 9.0 0.00 0.00 0.00 48 1014.4
20260903213231 98 267 2.0 11.0 0.00 0.00 0.00 47 1014.5
20260903212236 97 219 4.0 11.0 0.00 0.00 0.00 48 1014.6
20260903211211 97 195 3.0 8.0 0.00 0.00 0.00 46 1014.6
20260903210141 97 307 4.0 11.0 0.00 0.00 0.00 47 1014.8
20260903205157 97 286 3.0 11.0 0.00 0.00 0.00 48 1014.9
20260903204220 97 161 3.0 7.0 0.00 0.00 0.00 47 1015.0
20260903203228 98 266 4.0 10.0 0.00 0.00 0.00 48 1015.2
20260903202201 98 244 2.0 10.0 0.00 0.00 0.00 46 1015.2
20260903200041 97 226 6.0 11.0 0.00 0.00 0.00 47 1015.3
20260903195015 99 236 2.0 10.0 0.00 0.00 0.00 45 1015.6
20260903194035 98 279 1.0 4.0 0.00 0.00 0.00 47 1015.6
20260903191908 98 255 3.0 8.0 0.00 0.00 0.00 47 1015.9
20260903190931 98 247 2.0 7.0 0.00 0.00 0.00 47 1015.9
20260903185924 99 356 1.0 4.0 0.00 0.00 0.00 46 1015.8
20260903184930 99 291 1.0 11.0 0.00 0.00 0.00 46 1015.9
20260903183916 97 262 3.0 11.0 0.00 0.00 0.00 48 1016.0
20260903182858 97 226 3.0 10.0 0.00 0.00 0.00 49 1016.0
20260903181839 97 203 3.0 9.0 0.00 0.00 0.00 48 1016.0
20260903180829 97 25 2.0 10.0 0.00 0.00 0.00 47 1016.2
20260903175802 95 223 6.0 13.0 0.00 0.00 0.00 49 1016.2
20260903174748 95 233 6.0 13.0 0.00 0.00 0.00 51 1016.3
20260903173759 94 229 7.0 15.0 0.00 0.00 0.00 53 1016.4
20260903172751 94 235 6.0 15.0 0.00 0.00 0.00 52 1016.7
20260903171735 94 229 6.0 13.0 0.00 0.00 0.00 54 1016.8
20260903170800 94 243 4.0 11.0 0.00 0.00 0.00 56 1016.8
20260903165745 94 225 5.0 11.0 0.00 0.00 0.00 56 1017.0
20260903163635 93 39 5.0 10.0 0.00 0.00 0.00 56 1017.2
20260903161519 92 253 5.0 10.0 0.00 0.00 0.00 59 1017.4
20260903160538 92 228 4.0 10.0 0.00 0.00 0.00 57 1017.4
20260903154320 92 257 3.0 9.0 0.00 0.00 0.00 59 1017.5
20260903153257 92 244 3.0 9.0 0.00 0.00 0.00 60 1017.3
20260903152235 91 236 3.0 9.0 0.00 0.00 0.00 58 1017.4
20260903151239 92 266 1.0 3.0 0.00 0.00 0.00 60 1017.2
20260903150220 90 238 3.0 8.0 0.00 0.00 0.00 62 1017.2
20260903144050 88 188 3.0 6.0 0.00 0.00 0.00 67 1017.4
20260903143031 87 208 3.0 8.0 0.00 0.00 0.00 69 1017.3
20260903141957 86 216 4.0 8.0 0.00 0.00 0.00 71 1017.4
20260903141010 86 243 3.0 8.0 0.00 0.00 0.00 71 1017.5
20260903140005 85 226 3.0 8.0 0.00 0.00 0.00 72 1017.5
20260903134959 84 229 2.0 6.0 0.00 0.00 0.00 75 1017.5
20260903133935 85 167 1.0 4.0 0.00 0.00 0.00 73 1017.6
20260903132948 84 238 1.0 4.0 0.00 0.00 0.00 76 1017.6
20260903131954 83 223 1.0 4.0 0.00 0.00 0.00 77 1017.7
20260903130936 82 184 1.0 4.0 0.00 0.00 0.00 79 1017.8
20260903125910 81 207 1.0 4.0 0.00 0.00 0.00 80 1017.9
20260903124851 80 158 1.0 3.0 0.00 0.00 0.00 81 1017.9
20260903123911 80 309 1.0 3.0 0.00 0.00 0.00 82 1017.9
20260903122847 79 183 0.0 3.0 0.00 0.00 0.00 83 1017.9
20260903120730 78 150 0.0 2.0 0.00 0.00 0.00 86 1017.8
20260903115750 77 239 0.0 2.0 0.00 0.00 0.00 87 1017.7
20260903113553 76 103 0.0 0.0 0.00 0.00 0.00 89 1017.5
20260903112546 76 103 1.0 0.0 0.00 0.00 0.00 89 1017.5
20260903110438 76 240 1.0 4.0 0.00 0.00 0.00 89 1017.3
20260903104317 76 159 0.0 1.0 0.00 0.00 0.00 88 1017.1
20260903103330 76 243 0.0 3.0 0.00 0.00 0.00 89 1017.1
20260903102335 76 167 0.0 3.0 0.00 0.00 0.00 88 1016.9